SL-14 DEB, 47091

Orbit data source: Space-Track

SL-14 DEB, 47091 is space debris in LEO originally from a launch on Thu, 15 Aug 1991 UTC launched from the Plesetsk Missile And Space Complex (PKMTR). Debris objects in space refer to the collection of defunct objects orbiting the Earth. Examples of debris include non-operational satellites, rocket bodies, and fragments generated from explosions, collisions, or faulty payload assembly.

Loading next visibility...
Identifier
47091, 1991-056DR
Orbit
LEO
Country
Flag of CISCIS
Related business
Manufacturer
Unknown
Mission
Spacecraft
Bus & Motor
Unknown
Mass
Unknown
Launch date (UTC)
1991-08-15 (34 years ago)
Launch vehicle
Unknown
Launch site
Plesetsk Missile And Space Complex (PKMTR)
Object type
Payload
Rocket body
Debris
Shape & HBR
Unknown shape, 0.1 m
Radar Cross Section
Small (<0.1 m²)

Expand to show TLE details & history
Last TLE update: 3 days ago

TLE from 3 days ago
0 SL-14 DEB
1 47091U 91056DR  25286.49015281  .00000608  00000-0  14768-2 0  9997
2 47091  82.5988 317.7461 0008756 215.1979 144.8568 13.20201149238082
Epoch: 2025-10-13T11:45Z
TLE epoch observation values (Epoch: 2025-10-13T11:45:49.202Z)
Latitude
-0.00003°
Longitude
118.9989°
Altitude
1,192.182 km
Speed
7.255 km/s
True Right ascension
21h 10m 59s
True Declination
0° 00' 00"
Sunlit
Object was in daylight at epoch
Visualization orbit readout
Latitude
Unknown
Longitude
Unknown
Altitude
Unknown
Speed
Unknown
Apparent Right ascension
Unknown
Apparent Declination
Unknown
Sunlit
N/A
Visualization observer readout
Local Sidereal Time
04:58:00
Azimuth
Unknown
Elevation
Unknown
Doppler factor
Unknown
Orbital elements
Apogee altitude
1,187.809 km
Perigee altitude
1,174.571 km
Semi-major axis
7,559.327 km
Eccentricity
0.00088
Inclination
82.5988°
RAAN
317.7461°
Arg. of periapsis
215.1979°
True anomaly
144.9145°
Mean anomaly
144.8568°
Eccentric anomaly
144.88566°
Mean motion
3.30231 °/min
Orbital period
109.01 mins
BSTAR
0.0014768
Loading maneuver chart data...
Computing Atmospheric mass density...
Loading historical data...
Loading historical data...
Loading historical data...
Loading historical data...
Loading historical data...
Loading historical data...
Loading historical data...

Documentation

Showing up to 5 results
|